| time (UTC) | temp F | wind direction | speed knots | gust knots | rain 1hr in | rain 24hr in | rain mn in | humidity % | barometer mb |
| 20260510142251 | 67 | 203 | 0.9 | 5.2 | 0.00 | 0.00 | 0.00 | 75 | 1012.5 |
| 20260510141222 | 68 | 192 | 2.6 | 3.5 | 0.00 | 0.00 | 0.00 | 75 | 1012.6 |
| 20260510140153 | 65 | 211 | 0.9 | 3.5 | 0.00 | 0.00 | 0.00 | 78 | 1012.4 |
| 20260510135638 | 64 | 142 | 0.0 | 0.9 | 0.00 | 0.00 | 0.00 | 81 | 1012.4 |
| 20260510134629 | 63 | 0.0 | 0.9 | 0.00 | 0.00 | 0.00 | 83 | 1012.5 | |
| 20260510133540 | 64 | 213 | 0.9 | 0.9 | 0.00 | 0.00 | 0.00 | 82 | 1012.6 |
| 20260510132515 | 63 | 199 | 0.9 | 1.7 | 0.00 | 0.00 | 0.00 | 84 | 1012.5 |
| 20260510131446 | 62 | 201 | 0.9 | 1.7 | 0.00 | 0.00 | 0.00 | 85 | 1012.4 |
| 20260510130457 | 61 | 0.0 | 0.0 | 0.00 | 0.00 | 0.00 | 86 | 1012.7 | |
| 20260510125352 | 59 | 0.0 | 0.0 | 0.00 | 0.00 | 0.00 | 93 | 1012.6 | |
| 20260510124321 | 57 | 0.0 | 0.0 | 0.00 | 0.00 | 0.00 | 97 | 1012.6 | |
| 20260510123256 | 56 | 0.0 | 0.0 | 0.00 | 0.00 | 0.00 | 98 | 1012.4 | |
| 20260510122225 | 55 | 0.0 | 0.0 | 0.00 | 0.00 | 0.00 | 98 | 1012.3 | |
| 20260510121217 | 54 | 0.0 | 0.0 | 0.00 | 0.00 | 0.00 | 98 | 1012.2 | |
| 20260510120127 | 54 | 0.0 | 0.0 | 0.00 | 0.00 | 0.00 | 99 | 1011.9 | |
| 20260510115632 | 54 | 0.0 | 1.7 | 0.00 | 0.00 | 0.00 | 99 | 1011.9 | |
| 20260510114546 | 52 | 0.0 | 0.0 | 0.00 | 0.00 | 0.00 | 99 | 1011.6 | |
| 20260510113538 | 52 | 0.0 | 0.0 | 0.00 | 0.00 | 0.00 | 99 | 1012.1 | |
| 20260510112452 | 52 | 0.0 | 0.0 | 0.00 | 0.00 | 0.00 | 99 | 1011.7 | |
| 20260510111422 | 52 | 0.0 | 0.0 | 0.00 | 0.00 | 0.00 | 99 | 1011.4 | |
| 20260510110353 | 52 | 0.0 | 0.0 | 0.00 | 0.00 | 0.00 | 99 | 1011.8 | |
| 20260510105324 | 51 | 0.0 | 0.9 | 0.00 | 0.00 | 0.00 | 99 | 1011.5 | |
| 20260510104259 | 51 | 220 | 0.9 | 1.7 | 0.00 | 0.00 | 0.00 | 99 | 1011.4 |
| 20260510103233 | 51 | 0.0 | 0.0 | 0.00 | 0.00 | 0.00 | 99 | 1011.0 | |
| 20260510102205 | 51 | 212 | 0.0 | 1.7 | 0.00 | 0.00 | 0.00 | 99 | 1011.0 |
| 20260510101140 | 51 | 0.0 | 0.0 | 0.00 | 0.00 | 0.00 | 99 | 1011.0 | |
| 20260510100113 | 51 | 0.0 | 0.9 | 0.00 | 0.00 | 0.00 | 99 | 1011.1 | |
| 20260510095549 | 51 | 0.0 | 0.0 | 0.00 | 0.00 | 0.00 | 99 | 1010.9 | |
| 20260510094540 | 50 | 0.0 | 0.0 | 0.00 | 0.00 | 0.00 | 99 | 1010.9 | |
| 20260510093454 | 51 | 0.0 | 0.0 | 0.00 | 0.00 | 0.00 | 99 | 1010.8 | |
| 20260510092425 | 51 | 0.0 | 0.0 | 0.00 | 0.00 | 0.00 | 99 | 1010.9 | |
| 20260510091356 | 51 | 0.0 | 0.0 | 0.00 | 0.00 | 0.00 | 98 | 1010.8 | |
| 20260510090348 | 50 | 0.0 | 0.0 | 0.00 | 0.00 | 0.00 | 98 | 1010.7 | |
| 20260510085306 | 50 | 260 | 2.6 | 5.2 | 0.00 | 0.00 | 0.00 | 98 | 1011.0 |
| 20260510084235 | 50 | 187 | 0.0 | 3.5 | 0.00 | 0.00 | 0.00 | 98 | 1011.1 |
| 20260510083209 | 49 | 163 | 1.7 | 8.7 | 0.00 | 0.00 | 0.00 | 98 | 1011.1 |
| 20260510082139 | 49 | 212 | 1.7 | 6.1 | 0.00 | 0.00 | 0.00 | 98 | 1010.7 |
| 20260510081629 | 49 | 252 | 2.6 | 2.6 | 0.00 | 0.00 | 0.00 | 98 | 1010.5 |
| 20260510080559 | 49 | 204 | 0.0 | 0.9 | 0.00 | 0.00 | 0.00 | 97 | 1010.6 |
| 20260510075530 | 49 | 246 | 0.0 | 1.7 | 0.00 | 0.00 | 0.00 | 97 | 1010.5 |
| 20260510074502 | 49 | 0.0 | 0.0 | 0.00 | 0.00 | 0.00 | 97 | 1010.2 | |
| 20260510073433 | 49 | 0.0 | 0.9 | 0.00 | 0.00 | 0.00 | 97 | 1010.2 | |
| 20260510072403 | 49 | 0.0 | 2.6 | 0.00 | 0.00 | 0.00 | 96 | 1010.1 | |
| 20260510071338 | 50 | 0.0 | 0.0 | 0.00 | 0.00 | 0.00 | 96 | 1010.2 | |
| 20260510070308 | 50 | 0.0 | 0.0 | 0.00 | 0.00 | 0.00 | 95 | 1010.1 | |
| 20260510065243 | 49 | 0.0 | 0.0 | 0.00 | 0.00 | 0.00 | 93 | 1009.8 | |
| 20260510064233 | 52 | 0.0 | 0.0 | 0.00 | 0.00 | 0.00 | 93 | 1009.6 | |
| 20260510063152 | 50 | 0.0 | 0.0 | 0.00 | 0.00 | 0.00 | 94 | 1009.6 | |
| 20260510062634 | 51 | 0.0 | 0.0 | 0.00 | 0.00 | 0.00 | 93 | 1009.7 | |
| 20260510061609 | 51 | 0.0 | 0.0 | 0.00 | 0.00 | 0.00 | 93 | 1009.8 | |
| 20260510060540 | 51 | 0.0 | 0.0 | 0.00 | 0.00 | 0.00 | 93 | 1009.8 | |
| 20260510055511 | 51 | 0.0 | 0.0 | 0.00 | 0.00 | 0.00 | 93 | 1010.2 | |
| 20260510054448 | 51 | 0.0 | 0.0 | 0.00 | 0.00 | 0.00 | 94 | 1010.1 | |
| 20260510053417 | 51 | 0.0 | 0.0 | 0.00 | 0.00 | 0.00 | 93 | 1010.2 | |
| 20260510052411 | 52 | 0.0 | 0.0 | 0.00 | 0.00 | 0.00 | 92 | 1010.2 | |
| 20260510051318 | 52 | 0.0 | 0.0 | 0.00 | 0.00 | 0.00 | 92 | 1010.2 | |
| 20260510050248 | 51 | 0.0 | 0.0 | 0.00 | 0.00 | 0.00 | 93 | 1010.3 | |
| 20260510045219 | 52 | 0.0 | 0.0 | 0.00 | 0.00 | 0.00 | 92 | 1010.3 | |
| 20260510044719 | 52 | 0.0 | 0.0 | 0.00 | 0.00 | 0.00 | 92 | 1010.3 | |
| 20260510043632 | 53 | 0.0 | 0.0 | 0.00 | 0.00 | 0.00 | 92 | 1010.4 | |
| 20260510042607 | 53 | 0.0 | 0.0 | 0.00 | 0.00 | 0.00 | 92 | 1010.3 | |
| 20260510041546 | 52 | 0.0 | 0.0 | 0.00 | 0.00 | 0.00 | 94 | 1010.5 | |
| 20260510040521 | 51 | 0.0 | 0.0 | 0.00 | 0.00 | 0.00 | 95 | 1010.7 | |
| 20260510035451 | 52 | 0.0 | 0.0 | 0.00 | 0.00 | 0.00 | 95 | 1010.4 | |
| 20260510034422 | 51 | 0.0 | 0.0 | 0.00 | 0.00 | 0.00 | 94 | 1010.3 | |
| 20260510033353 | 51 | 0.0 | 0.0 | 0.00 | 0.00 | 0.00 | 93 | 1010.1 | |
| 20260510032328 | 52 | 0.0 | 0.0 | 0.00 | 0.00 | 0.00 | 92 | 1010.2 | |
| 20260510031258 | 53 | 0.0 | 0.0 | 0.00 | 0.00 | 0.00 | 93 | 1010.1 | |
| 20260510030229 | 53 | 0.0 | 0.0 | 0.00 | 0.00 | 0.00 | 93 | 1010.1 | |
| 20260510025159 | 53 | 0.0 | 0.0 | 0.00 | 0.00 | 0.00 | 94 | 1009.9 | |
| 20260510024645 | 53 | 0.0 | 0.0 | 0.00 | 0.00 | 0.00 | 93 | 1010.2 | |
| 20260510023641 | 53 | 0.0 | 0.0 | 0.00 | 0.00 | 0.00 | 94 | 1010.2 | |
| 20260510022555 | 54 | 0.0 | 0.0 | 0.00 | 0.00 | 0.00 | 93 | 1009.8 | |
| 20260510021526 | 53 | 0.0 | 0.0 | 0.00 | 0.00 | 0.00 | 92 | 1009.9 | |
| 20260510020457 | 54 | 0.0 | 0.0 | 0.00 | 0.00 | 0.00 | 93 | 1009.9 | |
| 20260510015432 | 54 | 0.0 | 0.0 | 0.00 | 0.00 | 0.00 | 93 | 1009.9 | |
| 20260510014403 | 54 | 0.0 | 0.0 | 0.00 | 0.00 | 0.00 | 92 | 1009.8 | |
| 20260510013334 | 55 | 0.0 | 0.0 | 0.00 | 0.00 | 0.00 | 92 | 1009.9 | |
| 20260510012307 | 55 | 0.0 | 0.0 | 0.00 | 0.00 | 0.00 | 92 | 1009.7 | |
| 20260510011240 | 54 | 0.0 | 0.0 | 0.00 | 0.00 | 0.00 | 93 | 1009.6 | |
| 20260510010211 | 55 | 0.0 | 0.0 | 0.00 | 0.00 | 0.00 | 92 | 1009.5 | |
| 20260510005149 | 56 | 0.0 | 0.0 | 0.00 | 0.00 | 0.00 | 92 | 1009.6 | |
| 20260510004124 | 56 | 0.0 | 0.0 | 0.00 | 0.00 | 0.00 | 92 | 1009.4 | |
| 20260510003055 | 56 | 0.0 | 0.0 | 0.00 | 0.00 | 0.00 | 92 | 1009.5 | |
| 20260510002027 | 57 | 0.0 | 0.0 | 0.00 | 0.00 | 0.00 | 89 | 1009.3 | |
| 20260510001004 | 57 | 0.0 | 0.0 | 0.00 | 0.00 | 0.00 | 90 | 1009.3 | |
| 20260509235940 | 57 | 0.0 | 0.0 | 0.00 | 0.00 | 0.00 | 91 | 1009.2 | |
| 20260509234910 | 58 | 0.0 | 0.0 | 0.00 | 0.00 | 0.00 | 90 | 1009.4 | |
| 20260509233842 | 58 | 0.0 | 0.0 | 0.00 | 0.00 | 0.00 | 88 | 1009.3 | |
| 20260509232816 | 57 | 0.0 | 0.0 | 0.00 | 0.00 | 0.00 | 89 | 1009.4 | |
| 20260509231747 | 58 | 0.0 | 0.0 | 0.00 | 0.00 | 0.00 | 86 | 1009.3 | |
| 20260509230718 | 59 | 0.0 | 0.9 | 0.00 | 0.00 | 0.00 | 87 | 1009.3 | |
| 20260509225649 | 59 | 147 | 1.7 | 1.7 | 0.00 | 0.00 | 0.00 | 85 | 1009.1 |
| 20260509224619 | 59 | 0.0 | 0.0 | 0.00 | 0.00 | 0.00 | 88 | 1009.4 | |
| 20260509223550 | 57 | 0.0 | 2.6 | 0.00 | 0.00 | 0.00 | 92 | 1009.3 | |
| 20260509222521 | 56 | 171 | 2.6 | 2.6 | 0.00 | 0.00 | 0.00 | 92 | 1009.5 |
| 20260509221500 | 57 | 184 | 0.9 | 0.9 | 0.00 | 0.00 | 0.00 | 92 | 1009.2 |
| 20260509220432 | 57 | 170 | 1.7 | 3.5 | 0.00 | 0.00 | 0.00 | 91 | 1009.4 |
| 20260509215401 | 57 | 155 | 0.9 | 1.7 | 0.00 | 0.00 | 0.00 | 92 | 1009.3 |
| 20260509214333 | 56 | 136 | 0.9 | 1.7 | 0.00 | 0.00 | 0.00 | 93 | 1009.4 |
| 20260509213308 | 56 | 0.0 | 0.9 | 0.00 | 0.00 | 0.00 | 92 | 1009.4 | |
| 20260509212238 | 57 | 0.0 | 0.0 | 0.00 | 0.00 | 0.00 | 93 | 1009.7 | |
| 20260509211230 | 57 | 0.0 | 0.0 | 0.00 | 0.00 | 0.00 | 93 | 1009.5 | |
| 20260509210144 | 57 | 197 | 0.9 | 0.9 | 0.00 | 0.00 | 0.00 | 93 | 1009.4 |
| 20260509205116 | 56 | 0.0 | 0.0 | 0.00 | 0.00 | 0.00 | 94 | 1009.6 | |
| 20260509204554 | 55 | 221 | 1.7 | 1.7 | 0.00 | 0.00 | 0.00 | 94 | 1009.6 |
| 20260509203525 | 54 | 0.0 | 1.7 | 0.00 | 0.00 | 0.00 | 93 | 1009.6 | |
| 20260509202517 | 55 | 0.0 | 2.6 | 0.00 | 0.00 | 0.00 | 93 | 1009.0 | |
| 20260509201430 | 55 | 302 | 3.5 | 6.1 | 0.00 | 0.00 | 0.00 | 94 | 1009.4 |
| 20260509200401 | 55 | 281 | 3.5 | 5.2 | 0.00 | 0.00 | 0.00 | 94 | 1009.4 |
| 20260509195353 | 55 | 159 | 0.0 | 2.6 | 0.00 | 0.00 | 0.00 | 95 | 1009.5 |
| 20260509194303 | 54 | 32 | 2.6 | 5.2 | 0.00 | 0.00 | 0.00 | 94 | 1009.8 |
| 20260509193314 | 55 | 273 | 5.2 | 6.1 | 0.00 | 0.00 | 0.00 | 94 | 1010.0 |
| 20260509192204 | 55 | 236 | 3.5 | 7.0 | 0.00 | 0.00 | 0.00 | 94 | 1010.1 |
| 20260509191139 | 55 | 232 | 1.7 | 3.5 | 0.00 | 0.00 | 0.00 | 94 | 1010.3 |
| 20260509190713 | 55 | 356 | 0.9 | 5.2 | 0.00 | 0.00 | 0.00 | 94 | 1010.5 |
| 20260509185604 | 55 | 288 | 5.2 | 8.7 | 0.00 | 0.00 | 0.00 | 94 | 1010.4 |
| 20260509184534 | 55 | 300 | 3.5 | 7.8 | 0.00 | 0.00 | 0.00 | 94 | 1010.4 |
| 20260509183525 | 55 | 298 | 2.6 | 3.5 | 0.00 | 0.00 | 0.00 | 94 | 1010.4 |
| 20260509182436 | 54 | 258 | 2.6 | 6.1 | 0.00 | 0.00 | 0.00 | 93 | 1010.8 |
| 20260509181407 | 54 | 270 | 2.6 | 3.5 | 0.00 | 0.00 | 0.00 | 92 | 1010.7 |
| 20260509180337 | 55 | 231 | 2.6 | 6.1 | 0.00 | 0.00 | 0.00 | 90 | 1010.9 |
| 20260509175308 | 55 | 325 | 3.5 | 3.5 | 0.00 | 0.00 | 0.00 | 88 | 1010.9 |
| 20260509174243 | 57 | 324 | 5.2 | 7.0 | 0.00 | 0.00 | 0.00 | 82 | 1010.8 |
| 20260509173234 | 58 | 296 | 4.3 | 5.2 | 0.00 | 0.00 | 0.00 | 79 | 1010.6 |
| 20260509172652 | 58 | 222 | 1.7 | 2.6 | 0.00 | 0.00 | 0.00 | 78 | 1010.5 |
| 20260509171643 | 57 | 189 | 1.7 | 2.6 | 0.00 | 0.00 | 0.00 | 82 | 1010.4 |
| 20260509170554 | 57 | 295 | 3.5 | 5.2 | 0.00 | 0.00 | 0.00 | 84 | 1010.8 |
| 20260509165524 | 58 | 2 | 4.3 | 7.8 | 0.00 | 0.00 | 0.00 | 87 | 1010.6 |
| 20260509164456 | 58 | 215 | 2.6 | 5.2 | 0.00 | 0.00 | 0.00 | 86 | 1010.6 |
| 20260509163425 | 57 | 261 | 1.7 | 5.2 | 0.00 | 0.00 | 0.00 | 86 | 1010.6 |
| 20260509162356 | 58 | 198 | 2.6 | 3.5 | 0.00 | 0.00 | 0.00 | 87 | 1010.8 |
| 20260509161331 | 58 | 221 | 2.6 | 6.1 | 0.00 | 0.00 | 0.00 | 83 | 1011.1 |
| 20260509160301 | 59 | 318 | 5.2 | 7.0 | 0.00 | 0.00 | 0.00 | 81 | 1011.3 |
| 20260509155237 | 60 | 231 | 2.6 | 6.1 | 0.00 | 0.00 | 0.00 | 78 | 1011.4 |
| 20260509154207 | 61 | 204 | 1.7 | 5.2 | 0.00 | 0.00 | 0.00 | 75 | 1011.4 |
| 20260509153653 | 61 | 214 | 5.2 | 7.0 | 0.00 | 0.00 | 0.00 | 74 | 1011.4 |
| 20260509152624 | 62 | 211 | 0.9 | 5.2 | 0.00 | 0.00 | 0.00 | 73 | 1011.4 |
| 20260509151555 | 62 | 215 | 1.7 | 1.7 | 0.00 | 0.00 | 0.00 | 72 | 1011.5 |
| 20260509150529 | 61 | 246 | 1.7 | 6.1 | 0.00 | 0.00 | 0.00 | 72 | 1011.4 |
| 20260509145501 | 61 | 203 | 4.3 | 7.0 | 0.00 | 0.00 | 0.00 | 71 | 1011.3 |
| 20260509144439 | 60 | 208 | 1.7 | 8.7 | 0.00 | 0.00 | 0.00 | 72 | 1011.2 |
| 20260509143410 | 61 | 207 | 2.6 | 6.1 | 0.00 | 0.00 | 0.00 | 72 | 1011.2 |